This demonstration page uses our WeatherBlox Daily Observations layout. Learn more.

Left ArrowRight Arrow

40.92945, -100.16068

Hourly Observations for April 2, 2015

Temp ( °F °C ) Dew Point ( °F °C ) Humidity (%) Winds ( mph kmh ) Pressure ( in mb ) Visibility ( mi km ) Precip ( " mm )
12:15 am 00:15 Clear 57 14 27 -3 31 31 N 24 39 29.77 1008 10 16 N/A
12:35 am 00:35 Clear 56 13.6 26 -3.3 31 31 NNE 23 37 29.74 1007 10 16 N/A
12:55 am 00:55 Mostly Cloudy 56 13.3 26 -3.6 31 31 NNE 20 31 29.74 1007 10 16 N/A
1:15 am 01:15 Mostly Cloudy 55 12.9 25 -4 31 31 N 16 26 29.80 1009 10 16 N/A
1:35 am 01:35 Cloudy 55 12.8 24 -4.7 29 29 NNW 15 24 29.80 1009 10 16 N/A
1:55 am 01:55 Cloudy 55 12.8 23 -4.9 29 29 N 17 28 29.83 1010 10 16 N/A
2:15 am 02:15 Cloudy with Rain 53 11.5 29 -1.9 40 40 N 14 22 29.85 1011 10 16 N/A
2:35 am 02:35 Cloudy with Light Rain 51 10.8 33 0.6 50 50 ENE 13 20 29.85 1011 10 16 0.01 0.25
2:55 am 02:55 Partly Cloudy 49 9.7 35 1.5 57 57 NNE 9 15 29.85 1011 10 16 0.01 0.25
3:15 am 03:15 Clear 48 8.8 33 0.8 58 58 NNE 9 15 29.83 1010 10 16 N/A
3:35 am 03:35 Clear 45 7.3 35 1.6 67 67 N 5 7 29.85 1011 10 16 N/A
3:55 am 03:55 Clear 44 6.8 33 0.4 64 64 N 6 9 29.85 1011 10 16 N/A
4:15 am 04:15 Clear 42 5.8 31 -0.4 65 65 NNW 6 9 29.88 1012 10 16 N/A
4:35 am 04:35 Clear 39 3.7 30 -0.9 72 72 NNW 8 13 29.91 1013 10 16 N/A
4:55 am 04:55 Clear 37 2.7 29 -1.7 73 73 N 8 13 29.91 1013 10 16 N/A
5:15 am 05:15 Clear 37 2.8 28 -2.1 70 70 NNW 6 9 29.94 1014 10 16 N/A
5:35 am 05:35 Partly Cloudy 35 1.4 28 -2.2 77 77 N 7 11 29.97 1015 10 16 N/A
5:55 am 05:55 Mostly Cloudy 34 1.3 30 -1.1 84 84 WNW 3 6 29.97 1015 10 16 N/A
6:15 am 06:15 Mostly Cloudy 37 2.5 31 -0.7 80 80 WNW 6 9 29.94 1014 10 16 N/A
6:35 am 06:35 Partly Cloudy 36 2.1 31 -0.7 82 82 WNW 7 11 29.97 1015 10 16 N/A
6:55 am 06:55 Partly Cloudy 34 1 30 -1.3 85 85 WNW 7 11 30.00 1016 10 16 N/A
7:15 am 07:15 Clear 33 0.8 29 -1.6 84 84 WNW 5 7 30.00 1016 10 16 N/A
7:35 am 07:35 Sunny 32 0.1 28 -2 86 86 WNW 7 11 30.00 1016 10 16 N/A
7:55 am 07:55 Sunny 33 0.5 29 -1.6 86 86 WNW 8 13 30.00 1016 10 16 N/A
8:15 am 08:15 Sunny 35 1.7 31 -0.6 85 85 WNW 7 11 30.00 1016 10 16 N/A
8:35 am 08:35 Sunny 38 3.2 32 -0.1 79 79 W 5 7 30.03 1017 10 16 N/A
8:55 am 08:55 Sunny 41 4.8 32 0.1 72 72 WNW 7 11 30.00 1016 10 16 N/A
9:15 am 09:15 Sunny 44 6.4 32 0.2 65 65 WNW 6 9 30.00 1016 10 16 N/A
9:35 am 09:35 Partly Cloudy 46 7.7 33 0.7 62 62 WNW 5 7 29.97 1015 10 16 N/A
9:55 am 09:55 Partly Cloudy 49 9.5 33 0.7 55 55 W 6 9 29.94 1014 10 16 N/A
10:15 am 10:15 Sunny 51 10.8 32 undefined 48 48 W 3 6 29.94 1014 10 16 N/A
10:35 am 10:35 Sunny 53 11.8 32 undefined 45 45 W 7 11 29.97 1015 10 16 N/A
10:55 am 10:55 Partly Cloudy 54 12 30 -1.2 40 40 N N/A 29.94 1014 10 16 N/A
11:15 am 11:15 Partly Cloudy 54 12.2 29 -1.4 39 39 N 3 6 29.94 1014 10 16 N/A
11:35 am 11:35 Mostly Cloudy 55 12.5 32 -0.2 42 42 SW 3 6 29.94 1014 10 16 N/A
11:55 am 11:55 Cloudy 55 12.8 29 -1.7 37 37 N N/A 29.91 1013 10 16 N/A
12:15 pm 12:15 Cloudy 56 13.4 29 -1.9 35 35 SSE 3 6 29.91 1013 10 16 N/A
12:35 pm 12:35 Cloudy 54 12.2 31 -0.3 42 42 WSW 9 15 29.97 1015 10 16 N/A
12:55 pm 12:55 Cloudy with Light Rain 53 11.6 30 -1.1 42 42 W 5 7 29.94 1014 7 11 N/A
1:15 pm 13:15 Mostly Cloudy 55 12.7 31 -0.6 40 40 ENE 3 6 29.91 1013 10 16 N/A
1:35 pm 13:35 Cloudy 55 12.5 30 -1.3 39 39 N 7 11 29.91 1013 10 16 N/A
1:55 pm 13:55 Cloudy 55 12.5 30 -1.2 39 39 NNW 5 7 29.91 1013 10 16 N/A
2:15 pm 14:15 Cloudy 55 12.5 30 -1.1 39 39 N 7 11 29.91 1013 10 16 N/A
2:35 pm 14:35 Cloudy 55 12.9 27 -2.7 34 34 NNW 8 13 29.94 1014 10 16 N/A
2:55 pm 14:55 Mostly Cloudy 58 14.2 29 -1.8 33 33 NNE 9 15 29.91 1013 10 16 N/A
3:15 pm 15:15 Mostly Cloudy 56 13.4 27 -2.8 33 33 N 9 15 29.91 1013 10 16 N/A
3:35 pm 15:35 Mostly Cloudy 57 13.9 28 -2.3 33 33 N 10 17 29.88 1012 10 16 N/A
3:55 pm 15:55 Mostly Cloudy 57 14.1 27 -2.7 31 31 N 15 24 29.88 1012 10 16 N/A
4:15 pm 16:15 Mostly Cloudy 56 13.2 27 -2.6 34 34 N 18 30 29.88 1012 10 16 N/A
4:35 pm 16:35 Mostly Cloudy 56 13.5 28 -2.3 34 34 NNE 21 33 29.88 1012 10 16 0.01 0.25
4:55 pm 16:55 Partly Cloudy 56 13.6 27 -2.7 32 32 N 18 30 29.88 1012 10 16 0.01 0.25
5:15 pm 17:15 Partly Cloudy 56 13.5 27 -2.8 32 32 NNE 18 30 29.88 1012 10 16 N/A
5:35 pm 17:35 Mostly Cloudy 55 12.6 24 -4.3 31 31 NNE 15 24 29.88 1012 10 16 N/A
5:55 pm 17:55 Cloudy 54 12.1 25 -3.8 33 33 NNE 13 20 29.94 1014 10 16 N/A
6:15 pm 18:15 Cloudy 53 11.6 25 -3.8 34 34 NNE 10 17 29.94 1014 10 16 N/A
6:35 pm 18:35 Cloudy 53 11.5 25 -4 34 34 NNE 7 11 29.94 1014 10 16 N/A
6:55 pm 18:55 Cloudy 52 11.3 25 -3.9 35 35 NNE 9 15 29.94 1014 10 16 N/A
7:15 pm 19:15 Cloudy 52 11 23 -5.1 32 32 NNE 16 26 29.94 1014 10 16 N/A
7:35 pm 19:35 Cloudy 51 10.6 22 -5.3 33 33 NNE 16 26 29.94 1014 10 16 N/A
7:55 pm 19:55 Cloudy 49 9.7 26 -3.5 40 40 N 25 41 29.94 1014 10 16 N/A
8:15 pm 20:15 Cloudy 49 9.2 26 -3.2 42 42 N 17 28 30.00 1016 10 16 N/A
8:35 pm 20:35 Cloudy 47 8.5 28 -2.2 47 47 N 26 43 30.03 1017 10 16 N/A
8:55 pm 20:55 Cloudy 46 7.5 31 -0.7 56 56 N 31 50 30.03 1017 10 16 N/A
9:15 pm 21:15 Cloudy with Drizzle 42 5.5 35 1.5 76 76 N 26 43 30.09 1019 10 16 N/A
9:35 pm 21:35 Cloudy 41 5 36 2 81 81 N 25 41 30.09 1019 10 16 N/A
9:55 pm 21:55 Cloudy with Light Rain 40 4.3 36 2.1 86 86 N 23 37 30.15 1021 10 16 N/A
10:15 pm 22:15 Cloudy with Light Rain 38 3.6 35 1.9 89 89 N 24 39 30.18 1022 4 6 0.03 0.76
10:35 pm 22:35 Windy with Snow Likely 37 2.8 35 1.4 91 91 N 21 33 30.15 1021 3 5 0.08 2.03
10:55 pm 22:55 Cloudy with Light Rain 37 2.7 35 1.5 92 92 N 14 22 30.18 1022 10 16 0.10 2.54
11:15 pm 23:15 Cloudy with Light Rain 37 2.7 35 1.5 92 92 N 10 17 30.21 1023 10 16 N/A
11:35 pm 23:35 Cloudy with Rain 37 2.7 35 1.5 92 92 N 9 15 30.18 1022 10 16 0.01 0.25
11:55 pm 23:55 Cloudy with Light Rain 37 2.7 35 1.5 92 92 N 7 11 30.21 1023 10 16 0.02 0.51

Powered by AerisWeather